Ft. Stewart, GA

8:25 AM EDT on August 21, 2017 (GMT -0400)
Wright Army Air Field

Weather History for KLHW - January, 2015

Change the Weather History Date:

Tuesday, January 13, 2015

  Actual Average Record
Temperature  
Mean Temperature 54 °F -  
Max Temperature 59 °F 59 °F 80 °F (1972)
Min Temperature 47 °F 38 °F 15 °F (1981)
Degree Days  
Heating Degree Days 12    
Growing Degree Days 4 (Base 50)    
Moisture  
Dew Point 54 °F    
Average Humidity 97    
Maximum Humidity 100    
Minimum Humidity 93    
Precipitation  
Precipitation 0.02 in - - ()
Sea Level Pressure  
Sea Level Pressure 30.19 in    
Wind  
Wind Speed 4 mph (NNE)    
Max Wind Speed 13 mph    
Max Gust Speed -    
Visibility 6 miles    
Events Fog , Rain    
Averages and records for this station are not official NWS values.
T = Trace of Precipitation, MM = Missing Value Source: NWS Daily Summary

Daily Weather History Graph

Daily Weather History Graph

Search for Another Location

Airport or City:

Trip Planner

Search our weather history database for the weather conditions in past years. The results will help you decide how hot, cold, wet, or windy it might be!

Date:

Astronomy

Jan. 13, 2015 Rise Set
Actual Time 7:27 AM EST 5:42 PM EST
Civil Twilight 7:00 AM EST 6:09 PM EST
Nautical Twilight 6:30 AM EST 6:39 PM EST
Astronomical Twilight 6:01 AM EST 7:08 PM EST
Moon 12:33 AM EST (1/13) 12:11 PM EST (1/13)
Length of Visible Light 11h 08m
Length of Day
10h 15m
Waning Gibbous, 47% of the Moon is Illuminated
Jan 13
Waning Gibbous
Jan 20
New
Jan 26
First Quarter
Feb 3
Full
Feb 11
Last Quarter

Hourly Weather History & Observations

Time (EST) Temp. Dew Point Humidity Pressure Visibility Wind Dir Wind Speed Gust Speed Precip Events Conditions
12:03 AM 59.0 °F 59.0 °F 100% 30.13 in 1.0 mi Calm Calm - N/A   Mist
12:08 AM 59.0 °F 59.0 °F 100% 30.13 in 0.8 mi Calm Calm - N/A   Mist
12:13 AM 59.0 °F 59.0 °F 100% 30.13 in 1.0 mi Calm Calm - N/A   Mist
12:19 AM 59.0 °F 59.0 °F 100% 30.12 in 2.0 mi NE 1.2 mph - N/A   Overcast
12:23 AM 59.0 °F 59.0 °F 100% 30.12 in 1.2 mi Calm Calm - N/A   Overcast
12:28 AM 59.0 °F 59.0 °F 100% 30.12 in 0.8 mi Calm Calm - N/A   Mist
12:58 AM 58.8 °F 58.3 °F 98% 30.12 in 0.5 mi NNW 4.6 mph - N/A Fog Fog
1:18 AM 59.0 °F 57.2 °F 94% 30.12 in 1.5 mi Calm Calm - N/A   Overcast
1:23 AM 59.0 °F 57.2 °F 94% 30.12 in 3.0 mi Calm Calm - N/A   Overcast
1:33 AM 59.0 °F 57.2 °F 94% 30.12 in 6.0 mi Calm Calm - N/A   Overcast
1:58 AM 57.9 °F 57.4 °F 98% 30.13 in 10.0 mi Calm Calm - N/A   Overcast
2:53 AM 57.2 °F 57.2 °F 100% 30.12 in 10.0 mi NW 4.6 mph - N/A   Overcast
2:58 AM 57.2 °F 56.7 °F 98% 30.13 in 10.0 mi NNW 3.5 mph - N/A   Overcast
3:14 AM 57.2 °F 55.4 °F 94% 30.13 in 9.0 mi NNW 6.9 mph - N/A   Light Drizzle
3:25 AM 57.2 °F 55.4 °F 94% 30.13 in 6.0 mi NW 4.6 mph - N/A   Overcast
3:45 AM 55.4 °F 55.4 °F 100% 30.13 in 4.0 mi NNW 5.8 mph - N/A   Overcast
3:58 AM 55.8 °F 55.2 °F 98% 30.14 in 5.0 mi NW 5.8 mph - 0.00 in   Overcast
4:03 AM 55.4 °F 55.4 °F 100% 30.13 in 6.0 mi NW 4.6 mph - N/A   Overcast
4:33 AM 55.4 °F 55.4 °F 100% 30.13 in 10.0 mi Calm Calm - N/A   Overcast
4:58 AM 55.2 °F 54.7 °F 98% 30.14 in 10.0 mi North 2.3 mph - N/A   Overcast
5:13 AM 55.4 °F 55.4 °F 100% 30.13 in 10.0 mi NNW 2.3 mph - N/A   Overcast
5:18 AM 55.4 °F 55.4 °F 100% 30.13 in 10.0 mi North 3.5 mph - N/A   Overcast
5:58 AM 55.0 °F 54.5 °F 98% 30.16 in 10.0 mi NNW 4.6 mph - N/A   Overcast
6:43 AM 55.4 °F 53.6 °F 94% 30.17 in 10.0 mi Calm Calm - N/A   Overcast
6:58 AM 55.0 °F 54.5 °F 98% 30.19 in 10.0 mi North 3.5 mph - N/A   Overcast
7:43 AM 55.4 °F 53.6 °F 94% 30.19 in 10.0 mi Calm Calm - N/A   Overcast
7:58 AM 54.9 °F 54.3 °F 98% 30.20 in 10.0 mi North 3.5 mph - N/A   Overcast
8:03 AM 55.4 °F 53.6 °F 94% 30.19 in 10.0 mi North 5.8 mph - N/A   Overcast
8:13 AM 55.4 °F 53.6 °F 94% 30.19 in 10.0 mi North 3.5 mph - N/A   Overcast
8:19 AM 55.4 °F 53.6 °F 94% 30.19 in 10.0 mi North 2.3 mph - N/A   Overcast
8:58 AM 55.6 °F 55.0 °F 98% 30.22 in 10.0 mi North 3.5 mph - N/A   Overcast
9:21 AM 55.4 °F 55.4 °F 100% 30.22 in 3.0 mi NNE 5.8 mph - N/A   Light Drizzle
9:58 AM 55.8 °F 55.0 °F 97% 30.24 in 2.0 mi NNE 6.9 mph - N/A   Light Drizzle
10:58 AM 56.7 °F 55.9 °F 97% 30.24 in 2.0 mi NE 5.8 mph - 0.00 in   Light Drizzle
11:58 AM 57.0 °F 56.1 °F 97% 30.23 in 2.0 mi NNE 5.8 mph - N/A   Light Drizzle
12:34 PM 57.2 °F 57.2 °F 100% 30.21 in 2.5 mi NNW 4.6 mph - N/A   Light Drizzle
12:58 PM 57.4 °F 56.3 °F 96% 30.21 in 1.8 mi North 3.5 mph - N/A   Light Drizzle
1:58 PM 57.9 °F 56.8 °F 96% 30.19 in 2.8 mi NNE 3.5 mph - N/A   Overcast
2:13 PM 59.0 °F 57.2 °F 94% 30.18 in 3.0 mi NNE 4.6 mph - N/A   Overcast
2:58 PM 58.3 °F 56.7 °F 94% 30.19 in 4.0 mi NNE 4.6 mph - N/A   Overcast
3:28 PM 57.2 °F 55.4 °F 94% 30.18 in 1.8 mi NE 5.8 mph - N/A   Light Drizzle
3:58 PM 57.9 °F 56.5 °F 95% 30.20 in 1.8 mi North 4.6 mph - N/A   Light Drizzle
3:59 PM 57.2 °F 57.2 °F 100% 30.19 in 4.0 mi North 3.5 mph - N/A   Overcast
4:00 PM 57.2 °F 57.2 °F 100% 30.19 in 3.0 mi NNE 3.5 mph - N/A   Light Drizzle
4:05 PM 57.2 °F 57.2 °F 100% 30.19 in 2.5 mi NNE 4.6 mph - N/A   Light Drizzle
4:10 PM 57.2 °F 57.2 °F 100% 30.19 in 1.8 mi NNE 5.8 mph - N/A   Light Drizzle
4:20 PM 57.2 °F 55.4 °F 94% 30.19 in 2.0 mi NE 6.9 mph - N/A Rain Light Rain
4:25 PM 57.2 °F 55.4 °F 94% 30.19 in 3.0 mi ENE 5.8 mph - N/A   Light Drizzle
4:28 PM 57.2 °F 55.4 °F 94% 30.19 in 4.0 mi East 6.9 mph - N/A   Overcast
4:38 PM 57.2 °F 55.4 °F 94% 30.19 in 5.0 mi East 6.9 mph - N/A   Overcast
4:58 PM 57.0 °F 55.8 °F 96% 30.20 in 3.0 mi East 9.2 mph - 0.01 in   Overcast
5:58 PM 55.8 °F 54.3 °F 95% 30.21 in 10.0 mi NE 4.6 mph - N/A   Overcast
6:38 PM 55.4 °F 53.6 °F 94% 30.20 in 7.0 mi ENE 4.6 mph - N/A   Overcast
6:42 PM 55.4 °F 53.6 °F 94% 30.20 in 4.0 mi ENE 5.8 mph - N/A   Light Drizzle
6:51 PM 55.4 °F 53.6 °F 94% 30.20 in 3.0 mi East 5.8 mph - N/A   Overcast
6:58 PM 55.6 °F 54.1 °F 95% 30.21 in 4.0 mi East 5.8 mph - 0.00 in   Overcast
7:36 PM 55.4 °F 53.6 °F 94% 30.21 in 3.0 mi NE 5.8 mph - N/A   Light Drizzle
7:45 PM 55.4 °F 53.6 °F 94% 30.22 in 3.0 mi NNE 5.8 mph - N/A   Overcast
7:54 PM 55.4 °F 53.6 °F 94% 30.21 in 4.0 mi NNE 8.1 mph - N/A   Light Drizzle
7:58 PM 55.0 °F 53.6 °F 95% 30.22 in 4.0 mi NNE 9.2 mph - 0.01 in   Light Drizzle
8:03 PM 53.6 °F 53.6 °F 100% 30.22 in 5.0 mi North 10.4 mph - N/A Rain Light Rain
8:18 PM 53.6 °F 51.8 °F 94% 30.22 in 5.0 mi NNE 10.4 mph - N/A Rain Light Rain
8:32 PM 51.8 °F 51.8 °F 100% 30.23 in 6.0 mi NNE 9.2 mph - N/A   Overcast
8:40 PM 51.8 °F 50.0 °F 94% 30.23 in 6.0 mi NNE 9.2 mph - N/A Rain Light Rain
8:49 PM 51.8 °F 50.0 °F 94% 30.23 in 6.0 mi NNE 10.4 mph - N/A   Overcast
8:58 PM 51.4 °F 50.0 °F 95% 30.24 in 7.0 mi NNE 12.7 mph - 0.00 in   Overcast
9:18 PM 50.0 °F 50.0 °F 100% 30.24 in 10.0 mi NNE 9.2 mph - N/A   Overcast
9:58 PM 50.2 °F 48.9 °F 95% 30.26 in 10.0 mi North 9.2 mph - N/A   Overcast
10:18 PM 50.0 °F 48.2 °F 94% 30.24 in 10.0 mi NNE 10.4 mph - N/A   Overcast
10:19 PM 50.0 °F 48.2 °F 94% 30.24 in 10.0 mi NNE 10.4 mph - N/A Rain Light Rain
10:24 PM 50.0 °F 48.2 °F 94% 30.24 in 8.0 mi NNE 10.4 mph - N/A Rain Light Rain
10:38 PM 48.2 °F 48.2 °F 100% 30.25 in 9.0 mi NNE 10.4 mph - N/A   Overcast
10:43 PM 48.2 °F 48.2 °F 100% 30.25 in 10.0 mi North 8.1 mph - N/A   Overcast
10:58 PM 48.4 °F 47.1 °F 95% 30.25 in 10.0 mi NNE 6.9 mph - 0.00 in   Overcast
11:38 PM 48.2 °F 46.4 °F 93% 30.23 in 9.0 mi NNE 6.9 mph - N/A   Overcast
11:52 PM 48.2 °F 46.4 °F 93% 30.23 in 9.0 mi North 8.1 mph - N/A Rain Light Rain
11:58 PM 47.5 °F 46.2 °F 95% 30.24 in 8.0 mi NNE 6.9 mph - 0.00 in Rain Light Rain